Missoula, MT

12:23 AM MST on December 18, 2017 (GMT -0700)
Missoula International

Weather History for KMSO - November, 2013

Change the Weather History Date:

Saturday, November 30, 2013

  Actual Average Record
Temperature  
Mean Temperature 35 °F 27 °F  
Max Temperature 39 °F 34 °F 55 °F (1941)
Min Temperature 30 °F 20 °F -6 °F (1979)
Degree Days  
Heating Degree Days 30 38  
Month to date heating degree days 944 954  
Since 1 July heating degree days 1855 1896  
Cooling Degree Days 0 0  
Month to date cooling degree days 0 0  
Year to date cooling degree days 579 332  
Moisture  
Dew Point 30 °F    
Average Humidity 87    
Maximum Humidity 96    
Minimum Humidity 78    
Precipitation  
Precipitation 0.02 in 0.04 in 0.43 in (1975)
Month to date precipitation 0.54 1.01  
Year to date precipitation 8.33 13.09  
Snow  
Snow 0.00 in - - ()
Month to date snowfall 1.8  
Year to date snowfall 29.2  
Since 1 July snowfall 1.8  
Snow Depth 0.00 in    
Sea Level Pressure  
Sea Level Pressure 30.29 in    
Wind  
Wind Speed 1 mph (SW)    
Max Wind Speed 6 mph    
Max Gust Speed 7 mph    
Visibility 8 miles    
Events Rain    
T = Trace of Precipitation, MM = Missing Value Source: NWS Daily Summary

Daily Weather History Graph

Daily Weather History Graph

Search for Another Location

Airport or City:

Trip Planner

Search our weather history database for the weather conditions in past years. The results will help you decide how hot, cold, wet, or windy it might be!

Date:

Astronomy

Nov. 30, 2013 Rise Set
Actual Time 8:00 AM MST 4:49 PM MST
Civil Twilight 7:25 AM MST 5:24 PM MST
Nautical Twilight 6:47 AM MST 6:02 PM MST
Astronomical Twilight 6:11 AM MST 6:38 PM MST
Moon 5:07 AM MST (11/30) 3:24 PM MST (11/30)
Length of Visible Light 9h 58m
Length of Day
8h 49m
Waning Crescent, 7% of the Moon is Illuminated
Nov 30
Waning Crescent
Dec 2
New
Dec 9
First Quarter
Dec 17
Full
Dec 25
Last Quarter

Hourly Weather History & Observations

Time (MST) Temp. Windchill Dew Point Humidity Pressure Visibility Wind Dir Wind Speed Gust Speed Precip Events Conditions
12:53 AM 32.0 °F 28.7 °F 27.0 °F 82% 30.31 in 9.0 mi SE 3.5 mph - N/A   Overcast
1:53 AM 30.9 °F - 28.0 °F 89% 30.31 in 8.0 mi Calm Calm - N/A   Overcast
2:53 AM 30.0 °F - 28.0 °F 92% 30.32 in 7.0 mi Calm Calm - N/A   Overcast
3:53 AM 30.0 °F 26.5 °F 28.0 °F 92% 30.32 in 6.0 mi WNW 3.5 mph - N/A   Overcast
4:53 AM 30.9 °F - 28.0 °F 89% 30.32 in 8.0 mi Calm Calm - N/A   Overcast
5:53 AM 30.0 °F - 28.0 °F 92% 30.32 in 6.0 mi Calm Calm - N/A   Overcast
6:53 AM 30.0 °F - 28.0 °F 92% 30.32 in 8.0 mi Calm Calm - N/A   Overcast
7:53 AM 30.9 °F - 28.0 °F 89% 30.33 in 8.0 mi Calm Calm - N/A   Overcast
8:53 AM 33.1 °F - 28.9 °F 85% 30.32 in 7.0 mi Calm Calm - N/A   Overcast
9:53 AM 34.0 °F - 28.9 °F 82% 30.32 in 8.0 mi Calm Calm - N/A   Overcast
10:32 AM 33.8 °F - 30.2 °F 87% 30.23 in 5.0 mi Calm Calm - 0.01 in Rain Light Rain
10:53 AM 35.1 °F - 30.9 °F 85% 30.31 in 8.0 mi Calm Calm - 0.01 in   Overcast
11:53 AM 35.1 °F - 32.0 °F 89% 30.30 in 6.0 mi Calm Calm - 0.01 in Rain Light Rain
12:53 PM 35.1 °F - 30.9 °F 85% 30.29 in 7.0 mi Calm Calm - 0.00 in   Overcast
1:53 PM 36.0 °F - 32.0 °F 86% 30.27 in 7.0 mi Calm Calm - N/A   Overcast
2:53 PM 37.0 °F 34.5 °F 33.1 °F 86% 30.26 in 7.0 mi SSW 3.5 mph - N/A   Overcast
3:53 PM 37.9 °F 34.4 °F 32.0 °F 79% 30.27 in 9.0 mi NE 4.6 mph - N/A   Overcast
4:53 PM 36.0 °F - 32.0 °F 86% 30.28 in 7.0 mi Calm Calm - N/A   Overcast
5:53 PM 36.0 °F - 33.1 °F 89% 30.30 in 8.0 mi Calm Calm - N/A   Overcast
6:53 PM 36.0 °F - 33.1 °F 89% 30.30 in 8.0 mi Calm Calm - N/A   Overcast
7:53 PM 35.1 °F - 32.0 °F 89% 30.29 in 7.0 mi Calm Calm - N/A   Overcast
8:53 PM 36.0 °F - 33.1 °F 89% 30.27 in 8.0 mi Calm Calm - N/A   Overcast
9:53 PM 34.0 °F 28.8 °F 32.0 °F 92% 30.26 in 9.0 mi West 5.8 mph - N/A   Overcast
10:53 PM 34.0 °F - 32.0 °F 92% 30.25 in 8.0 mi Calm Calm - N/A   Overcast
11:53 PM 35.1 °F - 32.0 °F 89% 30.23 in 10.0 mi Calm Calm - N/A   Overcast